Tracking 27402 objects as of 3-Jun-2023
HD Live streaming from Space Station
objects crossing your sky now

ECHOSTAR 7

Track ECHOSTAR 7 now!
ECHOSTAR 7 is classified as:


NORAD ID: 27378
Int'l Code: 2002-006A
Perigee: 35,890.3 km
Apogee: 35,943.6 km
Inclination: 1.1 °
Period: 1,442.4 minutes
Semi major axis: 42287 km
RCS: 17.7827 m2 (large)
Launch date: February 21, 2002
Source: United States (US)
Launch site: AIR FORCE EASTERN TEST RANGE (AFETR)

CONUS, Hawaii, Alaska and Puerto Rico; 32 Ku-band transponders
Your satellite tracking list
Your tracking list is empty




NASA's NSSDC Master Catalog

Two Line Element Set (TLE):
1 27378U 02006A   23153.51091586 -.00000067  00000-0  00000-0 0  9998
2 27378   1.1370  90.8298 0006306 340.5925 268.3139  0.99833983 39444
Source of the keplerian elements: AFSPC